COSMOS 2251 DEB, 35456

Orbit data source: Space-Track

COSMOS 2251 DEB, 35456 is space debris in LEO originally from a launch on Wed, 16 Jun 1993 UTC launched from the Plesetsk Missile And Space Complex (PKMTR). The debris from Iridium 33, an American commercial communications satellite, has been tracked extensively since its accidental collision with the defunct Russian satellite Cosmos 2251 in 2009. This event, occurring at high speed in low Earth orbit (LEO), generated thousands of pieces of space debris, significantly increasing the risk of further collisions. The Iridium 33 debris cloud has impacted space traffic management and orbital debris mitigation strategies, making it a subject of ongoing study in space situational awareness.

Loading next visibility...
Identifier
35456, 1993-036ALA
Orbit
LEO
Country
Flag of CISCIS
Related business
Manufacturer
Unknown
Mission
Spacecraft
Bus & Motor
Unknown
Mass
Unknown
Launch date (UTC)
1993-06-16 (33 years ago)
Launch vehicle
Unknown
Launch site
Plesetsk Missile And Space Complex (PKMTR)
Object type
Payload
Rocket body
Debris
Shape & HBR
Unknown shape, 0.1 m
Radar Cross Section
Small (<0.1 m²)

Expand to show TLE details & history
Last TLE update: 3 days ago

TLE from 3 days ago
0 COSMOS 2251 DEB
1 35456U 93036ALA 26142.32624455  .00005521  00000-0  84195-3 0  9993
2 35456  73.9479 163.8002 0062756 333.3803  26.4149 14.72787036682370
Epoch: 2026-05-22T07:49Z
TLE epoch observation values (Epoch: 2026-05-22T07:49:47.529Z)
Latitude
-0.00007°
Longitude
166.39344°
Altitude
615.371 km
Speed
7.573 km/s
True Right ascension
10h 55m 12s
True Declination
0° 00' 00"
Sunlit
Object was in daylight at epoch
Visualization orbit readout
Latitude
Unknown
Longitude
Unknown
Altitude
Unknown
Speed
Unknown
Apparent Right ascension
Unknown
Apparent Declination
Unknown
Sunlit
N/A
Visualization observer readout
Local Sidereal Time
22:10:07
Azimuth
Unknown
Elevation
Unknown
Doppler factor
Unknown
Orbital elements
Apogee altitude
693.88 km
Perigee altitude
605.671 km
Semi-major axis
7,027.913 km
Eccentricity
0.00628
Inclination
73.9479°
RAAN
163.8002°
Arg. of periapsis
333.3803°
True anomaly
26.73708°
Mean anomaly
26.4149°
Eccentric anomaly
26.57576°
Mean motion
3.68386 °/min
Orbital period
97.72 mins
BSTAR
0.00084195
Loading maneuver chart data...
Computing Atmospheric mass density...
Loading historical data...
Loading historical data...
Loading historical data...
Loading historical data...
Loading historical data...
Loading historical data...
Loading historical data...

Documentation

Showing up to 5 results
|